Weather History for Anaktuvuk Pass, AK

Change the Weather History Date:

Saturday, May 18, 2013

  Actual Average Record
Temperature  
Mean Temperature 6 °F -  
Max Temperature 12 °F 37 °F 55 °F (1998)
Min Temperature 0 °F 21 °F 0 °F (2013)
Degree Days  
Heating Degree Days 59    
Moisture  
Dew Point 0 °F    
Average Humidity 71    
Maximum Humidity 85    
Minimum Humidity 56    
Precipitation  
Precipitation 0.00 in - - ()
Sea Level Pressure  
Sea Level Pressure 29.77 in    
Wind  
Wind Speed 9 mph (NE)    
Max Wind Speed 15 mph    
Max Gust Speed -    
Visibility 8 miles    
Events      
Averages and records for this station are not official NWS values.
T = Trace of Precipitation, MM = Missing Value Source: NWS Daily Summary

Daily Weather History Graph

Daily Weather History Graph

Search for Another Location

Airport:

Trip Planner

Search our weather history database for the weather conditions in past years. The results will help you decide how hot, cold, wet, or windy it might be!

Date:

Astronomy

May. 18, 2013 Rise Set
Actual Time 3:29 AM AKDT 12:43 AM AKDT
Civil Twilight Sun does not rise Sun does not rise
Nautical Twilight Sun does not rise Sun does not rise
Astronomical Twilight Sun does not rise Sun does not rise
Moon 2:01 PM AKDT (5/18) 3:29 AM AKDT (5/18)
Length of Visible Light 24h 00m
Length of Day
21h 14m
First Quarter, 56% of the Moon is Illuminated
May 18
First Quarter
May 24
Full
May 31
Last Quarter
Jun 8
New
Jun 16
First Quarter

Hourly Weather History & Observations

Time (AKDT) Temp. Windchill Dew Point Humidity Pressure Visibility Wind Dir Wind Speed Gust Speed Precip Events Conditions
12:16 AM 8.6 °F -7.7 °F 1.4 °F 73% 29.59 in 7.0 mi NE 13.8 mph - N/A   Overcast
12:36 AM 6.8 °F -10.7 °F 1.4 °F 79% 29.59 in 4.0 mi NE 15.0 mph - N/A   Overcast
12:56 AM 6.8 °F -9.3 °F 1.4 °F 79% 29.60 in 2.5 mi NE 12.7 mph - N/A   Overcast
1:16 AM 6.8 °F -9.3 °F 1.4 °F 79% 29.60 in 5.0 mi NE 12.7 mph - N/A   Mostly Cloudy
1:36 AM 6.8 °F -8.6 °F 1.4 °F 79% 29.61 in 5.0 mi NE 11.5 mph - N/A   Overcast
1:56 AM 6.8 °F -8.6 °F 1.4 °F 79% 29.61 in 1.8 mi ENE 11.5 mph - N/A   Overcast
2:16 AM 6.8 °F -9.3 °F 1.4 °F 79% 29.61 in 1.5 mi ENE 12.7 mph - N/A   Overcast
2:36 AM 6.8 °F -8.6 °F -0.4 °F 72% 29.61 in 1.5 mi NE 11.5 mph - N/A   Overcast
2:56 AM 6.8 °F -8.6 °F 1.4 °F 79% 29.61 in 1.8 mi NE 11.5 mph - N/A   Overcast
3:16 AM 6.8 °F -6.9 °F -0.4 °F 72% 29.61 in 1.8 mi NE 9.2 mph - N/A   Overcast
3:36 AM 6.8 °F -8.6 °F 1.4 °F 79% 29.61 in 2.0 mi NE 11.5 mph - N/A   Overcast
3:56 AM 6.8 °F -8.6 °F -0.4 °F 72% 29.62 in 2.0 mi NE 11.5 mph - N/A   Overcast
4:16 AM 5.0 °F -9.1 °F -0.4 °F 78% 29.62 in 4.0 mi NE 9.2 mph - N/A   Partly Cloudy
4:36 AM 5.0 °F -6.9 °F -0.4 °F 78% 29.63 in 3.0 mi NE 6.9 mph - N/A   Scattered Clouds
4:56 AM 5.0 °F -9.1 °F -0.4 °F 78% 29.62 in 5.0 mi NE 9.2 mph - N/A   Partly Cloudy
5:16 AM 5.0 °F -8.1 °F -0.4 °F 78% 29.63 in 7.0 mi NE 8.1 mph - N/A   Scattered Clouds
5:36 AM 3.2 °F -7.8 °F -0.4 °F 85% 29.63 in 9.0 mi NE 5.8 mph - N/A   Overcast
5:56 AM 3.2 °F -6.2 °F -2.2 °F 78% 29.63 in 10.0 mi NNE 4.6 mph - N/A   Mostly Cloudy
6:16 AM 3.2 °F -7.8 °F -2.2 °F 78% 29.64 in 10.0 mi NE 5.8 mph - N/A   Mostly Cloudy
6:36 AM 3.2 °F -7.8 °F -0.4 °F 85% 29.64 in 10.0 mi NE 5.8 mph - N/A   Mostly Cloudy
6:56 AM 5.0 °F -4.1 °F -0.4 °F 78% 29.65 in 10.0 mi NE 4.6 mph - N/A   Overcast
7:16 AM 5.0 °F -2.1 °F -0.4 °F 78% 29.65 in 10.0 mi NNE 3.5 mph - N/A   Overcast
7:36 AM 3.2 °F -4.2 °F -2.2 °F 78% 29.66 in 7.0 mi North 3.5 mph - N/A   Overcast
7:56 AM 3.2 °F -6.2 °F -2.2 °F 78% 29.67 in 8.0 mi NNE 4.6 mph - N/A   Overcast
8:16 AM 3.2 °F -4.2 °F -2.2 °F 78% 29.67 in 9.0 mi NNE 3.5 mph - N/A   Overcast
8:36 AM 3.2 °F -4.2 °F -2.2 °F 78% 29.68 in 10.0 mi North 3.5 mph - N/A   Overcast
8:56 AM 5.0 °F -2.1 °F -0.4 °F 78% 29.69 in 9.0 mi NNE 3.5 mph - N/A   Overcast
9:16 AM 5.0 °F -2.1 °F -0.4 °F 78% 29.70 in 9.0 mi NNE 3.5 mph - N/A   Mostly Cloudy
9:36 AM 5.0 °F -4.1 °F -2.2 °F 72% 29.71 in 10.0 mi NE 4.6 mph - N/A   Partly Cloudy
9:56 AM 6.8 °F -2.0 °F -0.4 °F 72% 29.71 in 10.0 mi NNE 4.6 mph - N/A   Clear
10:16 AM 6.8 °F -3.5 °F -0.4 °F 72% 29.72 in 10.0 mi NNE 5.8 mph - N/A   Clear
10:36 AM 6.8 °F -5.9 °F -0.4 °F 72% 29.73 in 10.0 mi NE 8.1 mph - N/A   Clear
10:56 AM 6.8 °F -3.5 °F -0.4 °F 72% 29.74 in 10.0 mi NE 5.8 mph - N/A   Clear
11:16 AM 6.8 °F -8.6 °F 1.4 °F 79% 29.75 in 10.0 mi NNE 11.5 mph - N/A   Partly Cloudy
11:36 AM 8.6 °F -5.5 °F 1.4 °F 73% 29.76 in 10.0 mi NE 10.4 mph - N/A   Mostly Cloudy
11:56 AM 8.6 °F -5.5 °F 1.4 °F 73% 29.76 in 10.0 mi NNE 10.4 mph - N/A   Overcast
12:16 PM 10.4 °F -3.3 °F 1.4 °F 67% 29.77 in 10.0 mi NNE 10.4 mph - N/A   Overcast
12:36 PM 10.4 °F -3.3 °F 1.4 °F 67% 29.78 in 10.0 mi NNE 10.4 mph - N/A   Overcast
12:56 PM 10.4 °F -3.3 °F 1.4 °F 67% 29.79 in 10.0 mi NE 10.4 mph - N/A   Overcast
1:16 PM 10.4 °F -3.3 °F 1.4 °F 67% 29.79 in 10.0 mi NNE 10.4 mph - N/A   Overcast
1:36 PM 10.4 °F -2.4 °F 1.4 °F 67% 29.80 in 10.0 mi NNE 9.2 mph - N/A   Overcast
1:56 PM 12.2 °F -0.2 °F 1.4 °F 62% 29.81 in 10.0 mi NNE 9.2 mph - N/A   Overcast
2:16 PM 12.2 °F 0.7 °F 1.4 °F 62% 29.81 in 10.0 mi NNE 8.1 mph - N/A   Overcast
2:36 PM 12.2 °F -0.2 °F 1.4 °F 62% 29.82 in 10.0 mi NNE 9.2 mph - N/A   Overcast
2:56 PM 12.2 °F -0.2 °F 1.4 °F 62% 29.83 in 10.0 mi NNE 9.2 mph - N/A   Overcast
3:16 PM 12.2 °F -0.2 °F 1.4 °F 62% 29.83 in 10.0 mi NNE 9.2 mph - N/A   Mostly Cloudy
3:36 PM 12.2 °F 0.7 °F 1.4 °F 62% 29.84 in 10.0 mi NNE 8.1 mph - N/A   Mostly Cloudy
3:56 PM 12.2 °F -0.2 °F 1.4 °F 62% 29.85 in 10.0 mi NE 9.2 mph - N/A   Partly Cloudy
4:16 PM 12.2 °F -0.2 °F 1.4 °F 62% 29.85 in 10.0 mi NNE 9.2 mph - N/A   Clear
4:36 PM 12.2 °F -1.0 °F 1.4 °F 62% 29.86 in 10.0 mi NE 10.4 mph - N/A   Clear
4:56 PM 12.2 °F -1.0 °F 1.4 °F 62% 29.87 in 10.0 mi NE 10.4 mph - N/A   Clear
5:16 PM 12.2 °F -1.0 °F 1.4 °F 62% 29.88 in 10.0 mi NNE 10.4 mph - N/A   Clear
5:36 PM 12.2 °F -1.0 °F 1.4 °F 62% 29.89 in 10.0 mi NNE 10.4 mph - N/A   Clear
5:56 PM 12.2 °F -0.2 °F 1.4 °F 62% 29.90 in 10.0 mi NE 9.2 mph - N/A   Clear
6:16 PM 12.2 °F -0.2 °F 1.4 °F 62% 29.91 in 10.0 mi NNE 9.2 mph - N/A   Clear
6:36 PM 10.4 °F -1.5 °F 1.4 °F 67% 29.91 in 10.0 mi NE 8.1 mph - N/A   Clear
6:56 PM 10.4 °F -1.5 °F 1.4 °F 67% 29.92 in 10.0 mi NNE 8.1 mph - N/A   Clear
7:16 PM 10.4 °F -0.4 °F 1.4 °F 67% 29.92 in 10.0 mi NNE 6.9 mph - N/A   Clear
7:36 PM 10.4 °F 4.0 °F -0.4 °F 62% 29.93 in 10.0 mi NE 3.5 mph - N/A   Clear
7:56 PM 10.4 °F 2.2 °F 1.4 °F 67% 29.94 in 10.0 mi NNE 4.6 mph - N/A   Clear
8:16 PM 10.4 °F 4.0 °F -0.4 °F 62% 29.94 in 10.0 mi NNE 3.5 mph - N/A   Clear
8:36 PM 10.4 °F 4.0 °F -0.4 °F 62% 29.95 in 10.0 mi NNE 3.5 mph - N/A   Clear
8:56 PM 8.6 °F - -2.2 °F 62% 29.95 in 10.0 mi Calm Calm - N/A   Clear
9:16 PM 8.6 °F - -2.2 °F 62% 29.96 in 10.0 mi Calm Calm - N/A   Clear
9:36 PM 8.6 °F - -2.2 °F 62% 29.97 in 10.0 mi Calm Calm - N/A   Clear
9:56 PM 6.8 °F -0.1 °F -5.8 °F 56% 29.97 in 10.0 mi West 3.5 mph - N/A   Clear
10:16 PM 1.4 °F - -7.6 °F 66% 29.98 in 10.0 mi Calm Calm - N/A   Clear
10:36 PM 3.2 °F - -4.0 °F 72% 29.98 in 10.0 mi Calm Calm - N/A   Clear
10:56 PM 1.4 °F - -5.8 °F 72% 29.99 in 10.0 mi Calm Calm - N/A   Clear
11:16 PM 1.4 °F - -7.6 °F 66% 30.00 in 10.0 mi Calm Calm - N/A   Clear
11:36 PM -0.4 °F -10.4 °F -7.6 °F 72% 30.00 in 10.0 mi West 4.6 mph - N/A   Clear
11:56 PM 1.4 °F - -4.0 °F 78% 30.01 in 10.0 mi Calm Calm - N/A   Clear